Dewpoint
56 56 56 56 56 56 57 56 57 58 58 59 60 60 60 60 60 51 26 40 55 76 73 64 64 64 65 63 64 63 49 43 45 46 48 50 50 53 53 52 50 53 49 53 60
56 56 56 56 56 56 56 56 57 58 58 58 60 60 60 60 42 27 56 66 74 75 62 62 61 64 62 58 60 57 46 44 45 47 47 49 50 51 52 50 53 54 56 59 60
56 56 55 56 56 56 56 56 57 58 58 58 60 60 60 57 39 38 69 75 74 71 62 62 63 61 57 56 56 54 45 46 46 47 48 48 50 51 51 50 52 53 56 58 58
55 55 55 55 56 56 56 56 56 58 58 58 59 60 60 51 35 46 73 74 74 62 62 62 60 58 52 51 53 50 46 48 44 46 47 48 49 50 51 51 52 54 56 57 58
56 55 55 55 55 55 55 56 56 57 58 58 59 60 54 36 29 62 75 74 63 60 60 60 57 54 50 50 51 50 46 44 44 46 46 48 48 48 50 52 53 55 56 56 56
55 55 55 55 55 55 55 55 55 56 58 58 59 60 44 30 46 57 59 61 57 60 58 58 55 55 52 50 50 50 46 45 44 46 47 47 48 50 51 53 55 56 55 56 56
55 55 55 55 55 55 55 55 55 56 58 58 59 54 30 20 43 51 57 56 59 59 58 59 59 55 52 50 52 49 43 44 45 46 46 47 47 48 51 53 55 56 56 56 56
54 54 54 54 54 54 55 55 56 57 58 59 59 46 19 32 45 52 54 55 59 59 59 60 59 54 53 52 50 45 42 39 44 46 47 47 44 46 51 52 54 56 56 56 55
54 54 54 54 54 54 54 55 57 57 58 58 48 32 17 54 43 51 51 48 56 58 60 59 56 49 49 47 45 43 41 41 44 45 44 46 44 45 50 50 52 55 56 56 55
54 54 53 54 53 54 54 55 57 56 52 46 36 30 25 22 31 44 45 48 52 55 54 52 48 46 45 43 40 40 40 42 42 46 44 44 44 46 48 49 51 52 55 56 55
54 54 54 53 53 53 51 46 38 36 29 8 10 16 21 27 35 40 44 43 44 47 44 45 43 41 42 35 32 37 41 41 43 46 46 44 46 47 48 47 48 50 53 54 55
53 53 53 53 53 53 49 34 36 34 28 25 15 13 16 20 20 32 38 36 37 40 42 43 41 42 42 33 30 35 38 41 44 47 47 46 48 47 49 49 48 49 51 52 54
53 53 53 53 53 49 35 34 37 36 32 31 31 21 21 25 22 24 34 32 34 39 41 41 41 42 40 28 29 35 38 39 41 45 48 45 41 44 49 50 49 48 51 51 53
53 52 53 52 47 39 29 33 33 36 29 28 28 29 26 24 21 21 31 31 32 36 40 40 41 40 37 28 29 32 30 34 39 41 35 45 35 41 44 49 51 49 50 51 53
53 52 52 51 46 34 37 34 34 35 21 31 28 28 22 17 20 21 31 30 30 35 39 38 37 33 32 31 29 30 30 35 36 38 39 38 37 38 44 46 50 50 50 50 53
53 53 52 49 47 35 36 34 35 29 23 26 25 23 19 16 17 22 28 29 29 29 32 35 32 29 33 27 31 33 32 35 38 33 33 35 33 34 37 43 45 51 49 51 52
52 52 51 47 26 36 36 36 29 23 31 26 22 18 14 16 15 17 24 27 26 28 30 32 31 31 27 31 30 30 24 22 24 27 27 30 27 35 39 45 44 49 48 51 53
51 51 51 46 43 41 36 33 29 22 28 28 22 16 14 15 15 15 18 22 25 25 25 26 25 29 29 31 33 31 24 20 23 21 20 30 27 37 47 50 50 49 48 50 51
51 47 47 46 46 42 35 28 24 24 31 30 24 23 21 17 14 15 16 15 20 24 26 24 23 24 19 22 20 29 27 22 19 21 19 22 34 44 45 48 49 46 46 50 52
49 46 42 45 44 35 33 29 28 29 31 30 24 24 25 20 16 14 17 17 15 19 24 23 22 19 15 15 17 19 22 18 19 23 24 22 29 38 47 48 51 52 53 56 56
45 43 39 44 37 33 30 28 29 29 31 30 28 25 22 19 14 15 17 19 19 18 20 18 20 20 21 19 17 17 17 17 12 17 18 20 31 49 53 49 54 56 58 57 56
40 37 36 35 22 27 29 31 37 29 31 27 27 28 27 19 17 16 18 21 32 22 21 21 16 19 20 23 24 19 19 15 14 27 18 20 36 54 55 55 58 60 62 61 60
43 35 35 34 14 23 30 32 32 29 29 26 25 28 32 30 29 20 19 33 33 32 26 23 19 20 22 23 28 25 24 20 19 21 26 20 36 55 57 59 61 61 62 64 64
46 33 26 29 31 28 24 28 29 28 28 28 28 30 30 33 35 35 32 35 33 31 52 37 20 23 17 24 22 25 26 26 21 22 24 21 47 55 57 59 61 62 63 64 64
45 42 40 18 25 29 31 28 25 27 30 33 31 29 28 31 34 34 34 35 32 45 36 26 29 29 26 25 24 22 21 26 25 23 24 28 32 54 58 59 59 60 60 59 58
45 45 43 41 38 34 32 31 28 30 32 30 33 30 29 32 33 33 33 35 36 36 38 30 35 35 31 29 27 23 24 24 26 27 28 29 46 55 58 58 58 58 57 56 56
46 49 46 42 38 33 28 31 31 32 33 35 34 34 33 33 34 32 32 33 36 36 38 37 35 38 32 33 30 28 27 29 29 37 33 33 42 55 57 57 56 56 56 55 56
Lifted_Index
15 15 15 15 15 14 14 13 13 13 13 12 11 10 11 10 8 5 4 3 0 -3 -3 -3 -3 -3 -4 -4 -4 -3 -2 -1 -1 -1 -1 -1 -1 -0 0 1 1 1 2 1 1
15 15 15 15 15 15 14 14 13 13 13 12 11 11 11 10 6 3 3 2 -1 -3 -3 -3 -3 -3 -4 -3 -3 -3 -2 -1 -1 -1 -1 -1 -1 -0 -0 0 1 1 1 1 1
16 16 15 15 15 15 15 15 14 14 13 13 12 11 11 8 4 2 2 -0 -2 -3 -3 -3 -3 -4 -3 -3 -2 -2 -1 -0 -0 -0 -0 -0 -1 -0 -0 -0 0 0 1 1 1
17 16 16 15 15 15 15 15 15 14 14 13 12 11 10 7 4 2 -0 -2 -2 -2 -3 -4 -4 -3 -3 -2 -2 -1 -0 -0 0 0 -0 -0 -0 -0 -0 -0 0 0 0 1 1
18 17 16 15 15 15 15 15 15 15 14 13 12 11 9 6 4 2 -1 -2 -1 -2 -3 -4 -4 -3 -3 -2 -2 -1 -0 0 0 0 -0 -0 -0 -0 -0 -0 -0 0 0 0 0
19 18 17 16 15 15 15 15 15 15 15 14 13 11 8 6 5 3 1 -0 -1 -2 -3 -3 -4 -3 -3 -3 -2 -1 -0 -0 0 -0 -0 -1 -1 -1 -0 -0 -0 -0 -0 0 0
20 19 18 16 15 15 14 15 15 16 15 14 13 11 8 7 6 4 2 1 -1 -2 -2 -3 -3 -3 -3 -3 -3 -2 -1 -1 -1 -0 -1 -1 -1 -1 -1 -1 -1 -1 -0 -0 0
20 20 19 17 16 15 15 15 15 16 15 14 13 11 9 8 7 5 3 1 -0 -1 -2 -3 -2 -2 -2 -3 -3 -2 -2 -2 -1 -1 -1 -1 -1 -1 -1 -1 -1 -1 -1 -0 0
20 20 19 18 16 15 15 15 15 15 15 14 13 11 9 8 7 6 4 2 0 -1 -2 -2 -1 -1 -1 -2 -3 -3 -3 -2 -2 -1 -1 -1 -1 -1 -1 -1 -1 -1 -1 -1 -0
20 20 19 18 17 15 15 15 15 14 14 13 12 10 9 9 8 7 5 3 1 -0 -1 -1 -1 -1 -1 -1 -2 -2 -3 -2 -2 -2 -1 -1 -1 -1 -1 -0 -0 -0 -1 -1 -0
20 19 19 18 17 16 15 14 13 13 12 11 11 10 10 9 9 8 6 4 2 0 -0 -0 -1 -1 -1 -0 -0 -1 -2 -2 -2 -2 -2 -1 -1 -1 -1 -0 -0 -0 -1 -1 -1
19 19 18 18 17 15 14 13 12 11 11 10 10 10 10 10 9 8 7 5 2 1 0 -0 -1 -1 -1 1 1 0 -1 -2 -2 -2 -2 -2 -2 -2 -1 -1 -0 -0 -0 -0 -0
18 18 17 17 16 15 13 12 11 10 10 10 10 10 10 10 9 8 7 5 3 1 0 -0 -1 -1 -0 1 1 -0 -1 -1 -2 -2 -2 -2 -2 -2 -2 -1 -1 -0 -0 -0 -0
17 17 17 16 15 13 12 11 11 10 8 8 9 9 9 9 9 8 7 6 4 2 0 -1 -1 -1 -0 0 1 0 -0 -1 -1 -2 -2 -2 -2 -2 -2 -2 -1 -1 -1 -0 -0
16 16 15 15 13 12 12 11 10 8 6 7 8 9 9 9 8 8 7 6 5 3 1 -0 -0 -0 -0 0 1 1 0 -0 -1 -1 -1 -1 -2 -2 -2 -2 -2 -2 -1 -1 -1
15 15 14 13 12 11 11 10 8 6 5 6 7 8 8 8 7 7 7 6 5 4 2 1 1 1 0 0 1 1 0 -0 -1 -1 -1 -1 -1 -1 -1 -1 -2 -2 -2 -1 -1
14 13 13 13 12 10 9 8 6 5 5 5 6 7 7 7 7 7 7 6 5 4 3 2 1 1 1 0 0 0 -0 -1 -1 -1 -1 -0 -0 -0 -1 -1 -2 -2 -2 -2 -1
12 12 12 12 11 10 8 6 5 4 5 5 5 6 6 6 6 6 6 5 5 4 3 2 1 1 1 0 -0 -0 -0 -1 -1 -1 -1 -0 -0 -1 -1 -2 -2 -2 -2 -2 -2
11 11 11 11 11 9 7 5 5 5 5 4 5 5 5 5 5 5 5 5 5 4 4 2 2 2 2 1 0 0 0 -0 -1 -1 -1 -0 -0 -1 -2 -2 -2 -2 -2 -3 -3
10 10 10 11 11 9 6 5 5 5 5 4 4 4 4 4 4 4 4 5 5 5 4 3 2 2 2 1 1 1 1 0 -0 -1 -1 -1 -1 -1 -2 -2 -3 -3 -4 -4 -4
9 9 9 11 10 8 6 5 5 6 5 4 4 4 4 4 4 3 3 4 4 4 4 3 2 2 1 1 1 1 1 0 -0 -0 -1 -1 -1 -2 -3 -3 -4 -5 -5 -5 -5
8 8 10 11 9 8 6 5 5 6 5 5 5 4 4 3 3 3 3 3 4 4 4 3 2 1 1 2 2 1 1 0 -0 -0 -0 -1 -2 -3 -4 -4 -5 -5 -6 -6 -5
7 8 10 10 9 7 7 6 6 6 6 6 5 5 4 3 3 2 2 3 3 3 3 3 2 1 1 1 1 1 1 0 -0 -0 -0 -1 -2 -3 -4 -5 -5 -6 -6 -6 -6
6 7 9 9 8 7 7 6 6 6 6 6 5 5 4 3 2 2 2 2 2 2 3 3 2 1 0 0 1 1 1 1 0 -0 -0 -1 -2 -4 -5 -5 -5 -5 -5 -5 -5
6 6 7 7 8 7 7 7 6 6 6 5 5 4 4 2 1 1 1 1 1 2 2 2 1 1 1 1 1 1 1 1 1 0 -0 -1 -2 -4 -5 -5 -4 -4 -4 -4 -4
6 6 6 6 6 6 6 6 6 5 5 5 4 4 3 2 1 1 1 1 1 1 1 1 1 1 1 1 1 1 1 1 1 1 0 -0 -2 -4 -5 -4 -4 -3 -3 -4 -4
7 6 5 5 5 6 6 6 5 5 5 4 4 4 3 3 2 1 1 1 1 1 0 0 0 0 0 0 1 1 1 1 1 1 0 -0 -2 -4 -5 -4 -3 -3 -3 -4 -4